Time,TemperatureF,DewpointF,PressureIn,WindDirection,WindDirectionDegrees,WindSpeedMPH,WindSpeedGustMPH,Humidity,HourlyPrecipIn,Conditions,Clouds,dailyrainin,SolarRadiationWatts/m^2,SoftwareType,DateUTC
2013-09-06 00:04:00,67.0,64.0,-100.00,NE,36,3.0,7.0,90,0.00,,,0.00,0.000000,,2013-09-06 04:04:00,
2013-09-06 00:44:00,65.0,64.0,-100.00,NNE,23,1.0,4.0,96,0.00,,,0.00,0.000000,,2013-09-06 04:44:00,
2013-09-06 00:54:00,65.0,64.0,-100.00,NNE,23,1.0,4.0,96,0.00,,,0.00,0.000000,,2013-09-06 04:54:00,
2013-09-06 01:03:00,65.0,64.0,-100.00,NNE,23,1.0,4.0,96,0.00,,,0.00,0.000000,,2013-09-06 05:03:00,
2013-09-06 01:43:00,65.0,64.0,-100.00,NNE,12,1.0,2.0,96,0.00,,,0.00,0.000000,,2013-09-06 05:43:00,
2013-09-06 01:52:00,65.0,64.0,-100.00,NNE,12,1.0,2.0,96,0.00,,,0.00,0.000000,,2013-09-06 05:52:00,
2013-09-06 02:02:00,65.0,64.0,-100.00,NNE,12,1.0,2.0,96,0.00,,,0.00,0.000000,,2013-09-06 06:02:00,
2013-09-06 02:42:00,64.0,64.0,-100.00,East,83,2.0,4.0,99,0.00,,,0.00,0.000000,,2013-09-06 06:42:00,
2013-09-06 02:53:00,64.0,64.0,-100.00,East,83,2.0,4.0,99,0.00,,,0.00,0.000000,,2013-09-06 06:53:00,
2013-09-06 03:01:00,64.0,64.0,-100.00,East,83,2.0,4.0,99,0.00,,,0.00,0.000000,,2013-09-06 07:01:00,
2013-09-06 03:42:00,64.0,63.0,-100.00,NNW,344,1.0,5.0,98,0.00,,,0.00,0.000000,,2013-09-06 07:42:00,
2013-09-06 03:52:00,64.0,63.0,-100.00,NNW,344,1.0,5.0,98,0.00,,,0.00,0.000000,,2013-09-06 07:52:00,
2013-09-06 04:03:00,64.0,63.0,-100.00,NNW,344,1.0,5.0,98,0.00,,,0.00,0.000000,,2013-09-06 08:03:00,
2013-09-06 04:43:00,64.0,63.0,-100.00,ENE,61,2.0,5.0,98,0.00,,,0.00,0.000000,,2013-09-06 08:43:00,
2013-09-06 04:52:00,64.0,63.0,-100.00,ENE,61,2.0,5.0,98,0.00,,,0.00,0.000000,,2013-09-06 08:52:00,
2013-09-06 05:02:00,64.0,63.0,-100.00,ENE,61,2.0,5.0,98,0.00,,,0.00,0.000000,,2013-09-06 09:02:00,
2013-09-06 05:43:00,63.0,57.0,-100.00,ESE,102,5.0,6.0,82,0.00,,,0.00,0.000000,,2013-09-06 09:43:00,
2013-09-06 05:54:00,63.0,57.0,-100.00,ESE,102,5.0,6.0,82,0.00,,,0.00,0.000000,,2013-09-06 09:54:00,
2013-09-06 06:03:00,63.0,57.0,-100.00,ESE,102,5.0,6.0,82,0.00,,,0.00,0.000000,,2013-09-06 10:03:00,
2013-09-06 09:42:00,66.0,55.0,-100.00,SE,141,5.0,11.0,67,-99.99,,,0.01,189.000000,,2013-09-06 13:42:00,
2013-09-06 09:52:00,66.0,55.0,-100.00,SE,141,5.0,11.0,67,-99.99,,,0.01,189.000000,,2013-09-06 13:52:00,
2013-09-06 10:02:00,66.0,55.0,-100.00,SE,141,5.0,11.0,67,-99.99,,,0.01,189.000000,,2013-09-06 14:02:00,
2013-09-06 10:42:00,69.0,56.0,-100.00,SE,127,6.0,14.0,64,0.00,,,-99.99,491.000000,,2013-09-06 14:42:00,
2013-09-06 10:52:00,69.0,56.0,-100.00,SE,127,6.0,14.0,64,0.00,,,-99.99,491.000000,,2013-09-06 14:52:00,
2013-09-06 11:01:00,69.0,56.0,-100.00,SE,127,6.0,14.0,64,0.00,,,-99.99,491.000000,,2013-09-06 15:01:00,
2013-09-06 11:43:00,70.0,57.0,-100.00,SSE,158,7.0,14.0,64,0.00,,,0.01,706.000000,,2013-09-06 15:43:00,
2013-09-06 11:53:00,70.0,57.0,-100.00,SSE,158,7.0,14.0,64,0.00,,,0.01,706.000000,,2013-09-06 15:53:00,
2013-09-06 12:04:00,70.0,57.0,-100.00,SSE,158,7.0,14.0,64,0.00,,,0.01,706.000000,,2013-09-06 16:04:00,
2013-09-06 12:43:00,75.0,62.0,-100.00,SSE,149,4.0,11.0,65,0.00,,,0.01,877.000000,,2013-09-06 16:43:00,
2013-09-06 12:53:00,75.0,62.0,-100.00,SSE,149,4.0,11.0,65,0.00,,,0.01,877.000000,,2013-09-06 16:53:00,
2013-09-06 13:03:00,75.0,62.0,-100.00,SSE,149,4.0,11.0,65,0.00,,,0.01,877.000000,,2013-09-06 17:03:00,
2013-09-06 13:43:00,77.0,63.0,-100.00,SE,133,4.0,10.0,62,0.00,,,0.01,1027.000000,,2013-09-06 17:43:00,
2013-09-06 13:53:00,77.0,63.0,-100.00,SE,133,4.0,10.0,62,0.00,,,0.01,1027.000000,,2013-09-06 17:53:00,
2013-09-06 14:02:00,77.0,63.0,-100.00,SE,133,4.0,10.0,62,0.00,,,0.01,1027.000000,,2013-09-06 18:02:00,
2013-09-06 14:42:00,78.0,64.0,-100.00,SSE,156,4.0,11.0,63,0.00,,,0.01,1029.000000,,2013-09-06 18:42:00,
2013-09-06 14:52:00,78.0,64.0,-100.00,SSE,156,4.0,11.0,63,0.00,,,0.01,1029.000000,,2013-09-06 18:52:00,
2013-09-06 15:02:00,78.0,64.0,-100.00,SSE,156,4.0,11.0,63,0.00,,,0.01,1029.000000,,2013-09-06 19:02:00,
2013-09-06 15:43:00,79.0,67.0,-100.00,SSW,207,4.0,9.0,66,0.00,,,0.01,935.000000,,2013-09-06 19:43:00,
2013-09-06 15:52:00,79.0,67.0,-100.00,SSW,207,4.0,9.0,66,0.00,,,0.01,935.000000,,2013-09-06 19:52:00,
2013-09-06 16:02:00,79.0,67.0,-100.00,SSW,207,4.0,9.0,66,0.00,,,0.01,935.000000,,2013-09-06 20:02:00,
2013-09-06 16:42:00,73.0,63.0,-100.00,SSE,166,4.0,10.0,70,0.00,,,0.01,548.000000,,2013-09-06 20:42:00,
2013-09-06 16:52:00,73.0,63.0,-100.00,SSE,166,4.0,10.0,70,0.00,,,0.01,548.000000,,2013-09-06 20:52:00,
2013-09-06 17:02:00,73.0,63.0,-100.00,SSE,166,4.0,10.0,70,0.00,,,0.01,548.000000,,2013-09-06 21:02:00,
2013-09-06 17:43:00,77.0,65.0,-100.00,South,188,3.0,7.0,67,0.00,,,0.01,645.000000,,2013-09-06 21:43:00,
2013-09-06 17:54:00,77.0,65.0,-100.00,South,188,3.0,7.0,67,0.00,,,0.01,645.000000,,2013-09-06 21:54:00,
2013-09-06 18:04:00,77.0,65.0,-100.00,South,188,3.0,7.0,67,0.00,,,0.01,645.000000,,2013-09-06 22:04:00,
2013-09-06 18:44:00,75.0,62.0,-100.00,SSW,199,3.0,7.0,64,0.00,,,0.01,538.000000,,2013-09-06 22:44:00,
2013-09-06 18:54:00,75.0,62.0,-100.00,SSW,199,3.0,7.0,64,0.00,,,0.01,538.000000,,2013-09-06 22:54:00,
2013-09-06 19:03:00,75.0,62.0,-100.00,SSW,199,3.0,7.0,64,0.00,,,0.01,538.000000,,2013-09-06 23:03:00,
2013-09-06 19:43:00,71.0,63.0,-100.00,SSE,160,2.0,6.0,75,0.00,,,0.01,273.000000,,2013-09-06 23:43:00,
2013-09-06 19:52:00,71.0,63.0,-100.00,SSE,160,2.0,6.0,75,0.00,,,0.01,273.000000,,2013-09-06 23:52:00,
2013-09-06 20:01:00,71.0,63.0,-100.00,SSE,160,2.0,6.0,75,0.00,,,0.01,273.000000,,2013-09-07 00:01:00,
2013-09-06 20:42:00,65.0,62.0,-100.00,SE,127,3.0,5.0,90,0.00,,,0.01,48.000000,,2013-09-07 00:42:00,
2013-09-06 20:52:00,65.0,62.0,-100.00,SE,127,3.0,5.0,90,0.00,,,0.01,48.000000,,2013-09-07 00:52:00,
2013-09-06 21:02:00,65.0,62.0,-100.00,SE,127,3.0,5.0,90,0.00,,,0.01,48.000000,,2013-09-07 01:02:00,
2013-09-06 21:42:00,63.0,61.0,-100.00,SSE,154,3.0,5.0,94,0.00,,,0.01,0.000000,,2013-09-07 01:42:00,
2013-09-06 21:54:00,63.0,61.0,-100.00,SSE,154,3.0,5.0,94,0.00,,,0.01,0.000000,,2013-09-07 01:54:00,
2013-09-06 22:02:00,63.0,61.0,-100.00,SSE,154,3.0,5.0,94,0.00,,,0.01,0.000000,,2013-09-07 02:02:00,
2013-09-06 22:43:00,65.0,60.0,-100.00,SSE,161,4.0,8.0,85,0.00,,,0.01,0.000000,,2013-09-07 02:43:00,
2013-09-06 22:52:00,65.0,60.0,-100.00,SSE,161,4.0,8.0,85,0.00,,,0.01,0.000000,,2013-09-07 02:52:00,
2013-09-06 23:02:00,65.0,60.0,-100.00,SSE,161,4.0,8.0,85,0.00,,,0.01,0.000000,,2013-09-07 03:02:00,
2013-09-06 23:45:00,64.0,59.0,-100.00,SSE,161,4.0,7.0,85,0.00,,,-99.99,0.000000,,2013-09-07 03:45:00,
2013-09-06 23:55:00,64.0,59.0,-100.00,SSE,161,4.0,7.0,85,0.00,,,-99.99,0.000000,,2013-09-07 03:55:00,